Location: Gro�sch�nbrunn
(49.5760°N, 11.8868°E)
Time: 22:53:53
(UTC+00:00)

Cosmos 1891 Rocket - Pass Details

Date: 18 September 2020
Orbit: 933 x 1019 km, 82.9° (Epoch: 21 October)

Event Time Altitude Azimuth Distance (km) Brightness Sun altitude
Rises 18:25:28 0° 176° (S) 3,644 7.3 -11.5°
Reaches altitude 10° 18:27:59 10° 173° (S) 2,689 6.6 -11.9°
Maximum altitude 18:34:02 64° 94° (E) 1,050 4.4 -12.9°
Drops below altitude 10° 18:40:01 10° 15° (NNE) 2,664 6.9 -13.8°
Sets 18:42:31 0° 12° (NNE) 3,608 7.6 -14.2°
